This demonstration page uses our WeatherBlox Daily Observations layout. Learn more.

Left ArrowRight Arrow

Hourly Observations for November 16, 2020

Temp ( °F °C ) Dew Point ( °F °C ) Humidity (%) Winds ( mph kmh ) Pressure ( in mb ) Visibility ( mi km ) Precip ( " mm )
12:56 am 00:56 Clear 36 2.2 14 -10 40 40 WSW 7 11 30.08 1019 10 16 0.00 0.00
1:56 am 01:56 Clear 37 2.8 13 -10.6 37 37 W 9 15 30.08 1019 10 16 0.00 0.00
2:56 am 02:56 Clear 33 0.6 15 -9.4 47 47 WNW 7 11 30.09 1019 10 16 0.00 0.00
3:56 am 03:56 Clear 35 1.7 14 -10 42 42 W 7 11 30.10 1019 10 16 0.00 0.00
4:56 am 04:56 Clear 32 0 17 -8.3 54 54 W 3 6 30.11 1020 10 16 0.00 0.00
5:56 am 05:56 Clear 41 5 26 -3.3 55 55 W 14 22 30.12 1020 10 16 0.00 0.00
6:56 am 06:56 Clear 38 3.3 27 -2.8 65 65 WNW 8 13 30.16 1021 10 16 0.00 0.00
7:56 am 07:56 Sunny 34 1.1 26 -3.3 73 73 WNW 9 15 30.21 1023 10 16 0.00 0.00
8:56 am 08:56 Sunny 38 3.3 28 -2.2 68 68 NW 10 17 30.27 1025 10 16 0.00 0.00
9:56 am 09:56 Sunny 48 8.9 28 -2.2 46 46 NNW 13 20 30.27 1025 10 16 0.00 0.00
10:56 am 10:56 Sunny 53 11.7 26 -3.3 35 35 N 16 26 30.29 1026 10 16 0.00 0.00
11:56 am 11:56 Sunny 57 13.9 26 -3.3 30 30 NW 12 19 30.30 1026 10 16 0.00 0.00
12:56 pm 12:56 Sunny 58 14.4 23 -5 26 26 NNW 12 19 30.29 1026 10 16 0.00 0.00
1:56 pm 13:56 Sunny 59 15 21 -6.1 23 23 NW 14 22 30.29 1026 10 16 0.00 0.00
2:56 pm 14:56 Sunny 59 15 21 -6.1 23 23 NNW 14 22 30.29 1026 10 16 0.00 0.00
3:56 pm 15:56 Sunny 59 15 21 -6.1 23 23 NW 8 13 30.30 1026 10 16 0.00 0.00
4:56 pm 16:56 Sunny 55 12.8 22 -5.6 28 28 NNW 5 7 30.32 1027 10 16 0.00 0.00
5:56 pm 17:56 Clear 49 9.4 21 -6.1 33 33 NW 5 7 30.34 1027 10 16 0.00 0.00
6:56 pm 18:56 Clear 42 5.6 22 -5.6 45 45 N 3 6 30.38 1029 10 16 0.00 0.00
7:56 pm 19:56 Clear 36 2.2 22 -5.6 57 57 Calm 30.40 1029 10 16 0.00 0.00
8:56 pm 20:56 Clear 39 3.9 22 -5.6 50 50 Calm 30.41 1030 10 16 0.00 0.00
9:56 pm 21:56 Clear 34 1.1 21 -6.1 59 59 Calm 30.42 1030 10 16 0.00 0.00
10:56 pm 22:56 Cloudy 36 2.2 24 -4.4 62 62 Calm 30.43 1031 10 16 0.00 0.00
11:56 pm 23:56 Cloudy 39 3.9 27 -2.8 62 62 Calm 30.42 1030 10 16 0.00 0.00

Powered by AerisWeather